Flag for U.S.A. Weather past 2 weeks in Osage City, Kansas, U.S.A.

Now
34 °F

Passing clouds.


Feels Like: 27 °F
Forecast: 21 / 33 °F
Wind: 9 mph from Northwest

Location: Forbes Field

Current Time: Mar 1, 2015 at 2:26:09 PM

Latest Report: Mar 1, 2015 at 1:53 PM


Visibility: 10 mi

Pressure: 30.41 "Hg

Humidity: 61%

Dew point: 22 °F

Location of Osage CityLocation

Historic Weather in Osage City — Graph

°F

Osage City temperature yesterday

Maximum temperature yesterday: 25 °F (at 3:53 PM)
Minimum temperature yesterday: 12 °F (at 3:53 AM)
Average temperature yesterday: 20 °F

Past Weeks' High & Low Weather Summary

 TemperatureHumidityPressure
High56 °F (Feb 25, 12:53 PM)97% (Feb 21, 1:53 AM)30.81 "Hg (Feb 21, 1:53 AM)
Low5 °F (Feb 19, 1:53 AM)25% (Feb 14, 2:53 PM)29.72 "Hg (Feb 25, 2:53 PM)
Average23 °F61%30.30 "Hg
* Reported Feb 14 12:53 PM — Mar 1 12:53 PM, Osage City, Weather by CustomWeather, © 2015

Note: Actual official high and low records may vary slightly from our data, if they occured in-between our weather recording intervals... More about our weather records

Advertising

Osage City weather history for previous 24 hours

 ConditionsComfort  
Time TempWeatherWind HumidityBarometerVisibility
12:53 PM
Sun, Mar 1
34 °FOvercast.10 mph61%30.42 "Hg10 mi
11:53 AM31 °FPassing clouds.6 mph64%30.44 "Hg10 mi
11:03 AM29 °FPartly sunny.No wind66%30.42 "Hg10 mi
10:53 AM30 °FScattered clouds.3 mph66%30.45 "Hg10 mi
9:53 AM27 °FMore clouds than sun.7 mph72%30.43 "Hg10 mi
8:53 AM25 °FOvercast.6 mph78%30.43 "Hg10 mi
7:53 AM23 °FOvercast.No wind85%30.41 "Hg8 mi
6:53 AM22 °FOvercast.No wind89%30.40 "Hg9 mi
5:53 AM22 °FOvercast.No wind89%30.39 "Hg9 mi
4:53 AM23 °FOvercast.No wind85%30.39 "Hg8 mi
3:53 AM23 °FOvercast.No wind85%30.37 "Hg10 mi
2:53 AM23 °FOvercast.No wind85%30.39 "Hg10 mi
1:53 AM23 °FOvercast.No wind85%30.39 "Hg8 mi
12:53 AM23 °FMostly cloudy.No wind85%30.38 "Hg10 mi
11:53 PM
Sat, Feb 28
23 °FOvercast.No wind85%30.40 "Hg9 mi
10:53 PM23 °FLight snow. Overcast.No wind81%30.40 "Hg6 mi
9:53 PM23 °FOvercast.No wind81%30.41 "Hg10 mi
8:53 PM23 °FOvercast.5 mph81%30.40 "Hg10 mi
7:53 PM23 °FOvercast.8 mph81%30.40 "Hg10 mi
6:53 PM24 °FOvercast.5 mph77%30.41 "Hg10 mi
5:53 PM24 °FMostly cloudy.5 mph75%30.40 "Hg8 mi
4:53 PM25 °FOvercast.6 mph72%30.41 "Hg10 mi
3:53 PM25 °FLight snow. Overcast.6 mph75%30.42 "Hg6 mi
2:53 PM24 °FLight snow. Mostly cloudy.7 mph77%30.43 "Hg4 mi
Weather by CustomWeather, © 2015

See weather overviewHow to use our weather pages